Location: Brunembert
(50.7122°N, 1.8935°E)
Time: 10:22:06
(UTC+00:00)

Okean 3 Rocket - Pass Details

Date: 22 April 2021
Orbit: 615 x 644 km, 82.5° (Epoch: 05 May)

Event Time Altitude Azimuth Distance (km) Brightness Sun altitude
Rises 20:36:15 0° 352° (N) 2,965 7.9 -13.9°
Reaches altitude 10° 20:38:33 10° 356° (N) 2,048 6.9 -14.2°
Maximum altitude 20:43:04 62° 77° (ENE) 725 3.7 -14.8°
Enters shadow 20:45:39 24° 151° (SSE) 1,316 4.7 -15.1°
